CW4621 Weather Reports


Display with metric or nautical units.
time (UTC)temp
F
wind
direction
speed
MPH
gust
MPH
rain 1hr
in
rain 24hr
in
rain mn
in
humidity
%
barometer
mb
20260503232105 59 294 2.0 5.0 0.00 0.00 0.00 32 1011.9
20260503231605 59 192 2.0 6.0 0.00 0.00 0.00 32 1011.8
20260503231104 59 176 2.0 12.0 0.00 0.00 0.00 31 1011.8
20260503230604 59 347 3.0 9.0 0.00 0.00 0.00 31 1011.7
20260503230105 60 251 2.0 12.0 0.00 0.00 0.00 31 1011.7
20260503225604 60 312 3.0 8.0 0.00 0.00 0.00 31 1011.7
20260503225105 60 151 1.0 6.0 0.00 0.00 0.00 31 1011.6
20260503224604 60 313 3.0 9.0 0.00 0.00 0.00 30 1011.7
20260503224105 60 183 2.0 12.0 0.00 0.00 0.00 31 1011.7
20260503223605 60 100 3.0 9.0 0.00 0.00 0.00 30 1011.7
20260503222605 60 215 2.0 5.0 0.00 0.00 0.00 31 1011.7
20260503222105 60 289 3.0 9.0 0.00 0.00 0.00 30 1011.7
20260503221605 60 351 2.0 9.0 0.00 0.00 0.00 31 1011.7
20260503221105 61 180 5.0 10.0 0.00 0.00 0.00 30 1011.7
20260503220105 61 26 3.0 7.0 0.00 0.00 0.00 29 1011.7
20260503215605 61 198 2.0 10.0 0.00 0.00 0.00 30 1011.7
20260503215105 61 150 2.0 12.0 0.00 0.00 0.00 30 1011.8
20260503214605 61 202 3.0 9.0 0.00 0.00 0.00 30 1011.8
20260503213604 61 335 2.0 9.0 0.00 0.00 0.00 30 1011.7
20260503213104 61 19 3.0 8.0 0.00 0.00 0.00 31 1011.7
20260503212605 61 304 3.0 8.0 0.00 0.00 0.00 31 1011.7
20260503211605 61 262 3.0 13.0 0.00 0.00 0.00 30 1011.8
20260503211104 60 277 3.0 10.0 0.00 0.00 0.00 30 1011.7
20260503210604 61 306 3.0 9.0 0.00 0.00 0.00 30 1011.7
20260503210105 61 30 3.0 12.0 0.00 0.00 0.00 31 1011.7
20260503205605 61 22 4.0 7.0 0.00 0.00 0.00 31 1011.8
20260503205104 61 196 4.0 12.0 0.00 0.00 0.00 31 1011.8
20260503204605 61 302 1.0 8.0 0.00 0.00 0.00 31 1011.7
20260503204104 60 277 3.0 7.0 0.00 0.00 0.00 32 1011.8
20260503203105 59 9 1.0 5.0 0.00 0.00 0.00 32 1011.8
20260503202104 59 336 3.0 8.0 0.00 0.00 0.00 32 1011.8
20260503201605 59 237 3.0 9.0 0.00 0.00 0.00 31 1011.8
20260503201105 59 331 3.0 12.0 0.00 0.00 0.00 30 1011.9
20260503200605 59 298 3.0 12.0 0.00 0.00 0.00 30 1011.9
20260503200105 59 330 3.0 8.0 0.00 0.00 0.00 31 1011.9
20260503195605 60 244 3.0 8.0 0.00 0.00 0.00 30 1011.9
20260503195105 60 3 2.0 12.0 0.00 0.00 0.00 32 1011.8
20260503194605 60 18 2.0 7.0 0.00 0.00 0.00 31 1011.8
20260503194105 60 289 2.0 12.0 0.00 0.00 0.00 31 1011.9
20260503193605 60 302 3.0 12.0 0.00 0.00 0.00 31 1012.1
20260503193105 60 22 2.0 10.0 0.00 0.00 0.00 32 1012.0
20260503191605 60 313 4.0 12.0 0.00 0.00 0.00 31 1012.2
20260503191105 59 209 3.0 10.0 0.00 0.00 0.00 32 1012.2
20260503190604 59 137 3.0 12.0 0.00 0.00 0.00 32 1012.3
20260503190105 59 351 1.0 12.0 0.00 0.00 0.00 32 1012.3
20260503185605 59 46 3.0 7.0 0.00 0.00 0.00 31 1012.3
20260503184605 59 232 4.0 17.0 0.00 0.00 0.00 33 1012.3
20260503184104 59 320 3.0 8.0 0.00 0.00 0.00 32 1012.5
20260503183605 59 208 4.0 12.0 0.00 0.00 0.00 32 1012.7
20260503183104 58 297 3.0 10.0 0.00 0.00 0.00 35 1012.6
20260503181104 57 78 3.0 7.0 0.00 0.00 0.00 34 1012.8
20260503180605 57 294 4.0 12.0 0.00 0.00 0.00 35 1012.7
20260503180104 57 40 3.0 7.0 0.00 0.00 0.00 34 1012.7
20260503175604 57 337 5.0 12.0 0.00 0.00 0.00 32 1012.8
20260503175104 57 163 3.0 9.0 0.00 0.00 0.00 34 1012.8
20260503174604 56 331 4.0 13.0 0.00 0.00 0.00 37 1012.9
20260503174105 56 323 3.0 10.0 0.00 0.00 0.00 35 1012.8
20260503173605 56 275 3.0 8.0 0.00 0.00 0.00 36 1012.9
20260503173104 57 335 2.0 7.0 0.00 0.00 0.00 37 1012.8
20260503172605 56 163 3.0 13.0 0.00 0.00 0.00 36 1012.9
20260503172104 56 326 4.0 10.0 0.00 0.00 0.00 37 1013.0
20260503171604 56 283 4.0 10.0 0.00 0.00 0.00 36 1012.9
20260503171105 56 58 1.0 10.0 0.00 0.00 0.00 38 1012.9
20260503170605 56 220 3.0 12.0 0.00 0.00 0.00 37 1012.9
20260503170104 56 339 2.0 9.0 0.00 0.00 0.00 37 1013.0
20260503150605 53 327 2.0 3.0 0.00 0.00 0.00 43 1013.5
20260503150104 52 322 3.0 12.0 0.00 0.00 0.00 44 1013.4
20260503140105 51 319 1.0 3.0 0.00 0.00 0.00 49 1013.5
20260503131105 49 309 3.0 10.0 0.00 0.00 0.00 50 1013.3
20260503130605 49 308 1.0 7.0 0.00 0.00 0.00 51 1013.3
20260503130105 49 270 3.0 8.0 0.00 0.00 0.00 51 1013.3
20260503110605 46 245 2.0 3.0 0.00 0.00 0.00 54 1012.5
20260503110104 46 10 1.0 3.0 0.00 0.00 0.00 54 1012.3
20260503090105 44 271 0.0 0.0 0.00 0.00 0.00 63 1010.7
20260503081605 44 262 0.0 1.0 0.00 0.00 0.00 63 1010.3
20260503081105 44 262 0.0 1.0 0.00 0.00 0.00 63 1010.3
20260503080605 44 215 0.0 1.0 0.00 0.00 0.00 63 1010.2
20260503080105 44 287 0.0 1.0 0.00 0.00 0.00 64 1010.3
20260503072605 44 271 0.0 0.0 0.00 0.00 0.00 62 1010.3
20260503072105 44 271 0.0 0.0 0.00 0.00 0.00 61 1010.2
20260503071604 44 271 0.0 0.0 0.00 0.00 0.00 61 1010.2
20260503071104 45 271 0.0 0.0 0.00 0.00 0.00 61 1010.1
20260503070604 45 271 0.0 1.0 0.00 0.00 0.00 60 1010.1
20260503070105 46 271 0.0 1.0 0.00 0.00 0.00 59 1010.1
20260503060105 49 300 0.0 3.0 0.00 0.00 0.00 53 1010.4
20260503055104 50 348 2.0 3.0 0.00 0.00 0.00 52 1010.5
20260503054104 50 286 1.0 2.0 0.00 0.00 0.00 52 1010.6
20260503053104 50 311 1.0 3.0 0.00 0.00 0.00 51 1010.6
20260503052605 50 265 0.0 2.0 0.00 0.00 0.00 51 1010.7
20260503052105 50 350 1.0 3.0 0.00 0.00 0.00 51 1010.7
20260503051604 51 311 1.0 2.0 0.00 0.00 0.00 50 1010.7
20260503051105 51 313 1.0 3.0 0.00 0.00 0.00 50 1010.7
20260503050605 51 337 0.0 3.0 0.00 0.00 0.00 50 1010.7
20260503050105 51 96 1.0 3.0 0.00 0.00 0.00 50 1010.8
20260503045605 51 308 1.0 5.0 0.00 0.00 0.00 49 1010.9
20260503045104 51 322 2.0 3.0 0.00 0.00 0.00 49 1010.9
20260503044604 51 322 0.0 5.0 0.00 0.00 0.00 49 1011.0
20260503043605 51 283 1.0 6.0 0.00 0.00 0.00 48 1011.0
20260503042605 51 321 1.0 8.0 0.00 0.00 0.00 48 1011.2
20260503041605 52 268 0.0 2.0 0.00 0.00 0.00 47 1011.2
20260503041104 52 305 1.0 3.0 0.00 0.00 0.00 47 1011.3
20260503040604 52 330 0.0 3.0 0.00 0.00 0.00 46 1011.3
20260503040104 52 286 1.0 2.0 0.00 0.00 0.00 46 1011.3
20260503035605 52 353 1.0 3.0 0.00 0.00 0.00 46 1011.2
20260503035104 52 84 1.0 2.0 0.00 0.00 0.00 45 1011.2
20260503034605 52 297 2.0 6.0 0.00 0.00 0.00 45 1011.0
20260503034105 53 320 1.0 5.0 0.00 0.00 0.00 44 1011.1
20260503033604 53 272 1.0 2.0 0.00 0.00 0.00 44 1011.1
20260503033104 53 37 1.0 3.0 0.00 0.00 0.00 44 1011.1
20260503032604 53 188 1.0 3.0 0.00 0.00 0.00 44 1011.2
20260503032104 53 287 0.0 3.0 0.00 0.00 0.00 44 1011.1
20260503031104 53 356 1.0 7.0 0.00 0.00 0.00 43 1011.1
20260503030605 53 311 2.0 8.0 0.00 0.00 0.00 43 1011.1
20260503030105 53 305 1.0 3.0 0.00 0.00 0.00 42 1011.1
20260503025605 54 351 0.0 3.0 0.00 0.00 0.00 42 1011.2
20260503025105 54 324 1.0 3.0 0.00 0.00 0.00 42 1011.0
20260503024605 54 124 1.0 5.0 0.00 0.00 0.00 42 1011.1
20260503024105 54 345 2.0 8.0 0.00 0.00 0.00 41 1011.1
20260503023605 54 332 2.0 6.0 0.00 0.00 0.00 41 1011.1
20260503022105 54 306 2.0 7.0 0.00 0.00 0.00 41 1011.1
20260503021605 54 291 1.0 5.0 0.00 0.00 0.00 41 1011.1
20260503021104 55 18 1.0 3.0 0.00 0.00 0.00 40 1011.1
20260503020605 55 264 1.0 3.0 0.00 0.00 0.00 40 1011.2
20260503015605 55 349 1.0 3.0 0.00 0.00 0.00 40 1011.1
20260503015105 55 312 2.0 6.0 0.00 0.00 0.00 40 1011.1
20260503014605 55 333 1.0 5.0 0.00 0.00 0.00 39 1011.0
20260503013605 55 237 1.0 6.0 0.00 0.00 0.00 39 1011.1
20260503013105 55 337 1.0 9.0 0.00 0.00 0.00 38 1011.0
20260503012604 55 321 2.0 7.0 0.00 0.00 0.00 38 1010.9
20260503012104 55 278 1.0 7.0 0.00 0.00 0.00 38 1010.9
20260503011605 55 330 1.0 5.0 0.00 0.00 0.00 39 1010.9
20260503011105 55 276 1.0 5.0 0.00 0.00 0.00 39 1010.8
20260503010604 55 314 1.0 3.0 0.00 0.00 0.00 38 1010.7
20260503010105 55 309 2.0 5.0 0.00 0.00 0.00 38 1010.6
20260503005605 55 313 1.0 3.0 0.00 0.00 0.00 39 1010.7
20260503004605 55 350 1.0 2.0 0.00 0.00 0.00 39 1010.6
20260503004104 56 325 1.0 3.0 0.00 0.00 0.00 38 1010.5
20260503003606 56 322 1.0 3.0 0.00 0.00 0.00 38 1010.4
20260503003105 56 246 0.0 3.0 0.00 0.00 0.00 38 1010.2
20260503002605 56 298 1.0 3.0 0.00 0.00 0.00 39 1010.2
20260503002105 56 241 1.0 5.0 0.00 0.00 0.00 39 1010.2
20260503001605 56 348 0.0 1.0 0.00 0.00 0.00 39 1010.2
20260503001105 56 354 0.0 2.0 0.00 0.00 0.00 39 1010.2
20260503000604 57 295 0.0 3.0 0.00 0.00 0.00 38 1010.3
20260503000105 57 346 0.0 3.0 0.00 0.00 0.00 38 1010.1
20260502235605 57 165 0.0 3.0 0.00 0.00 0.00 38 1010.1
20260502235105 57 281 1.0 2.0 0.00 0.00 0.00 38 1010.1
20260502234605 58 303 1.0 3.0 0.00 0.00 0.00 37 1010.1
20260502234105 58 39 1.0 3.0 0.00 0.00 0.00 37 1010.0
20260502233605 58 246 1.0 3.0 0.00 0.00 0.00 38 1009.9